Waarnemingen

Advertentie
Mijn weer
Auch, Frankrijk (7622): temperatuur & dauwpunt: 18.02.2017 09:00:00 - 24.02.2017 09:00:00 (CET)Auch, Frankrijk (7622): temperatuur 5cm: 18.02.2017 09:00:00 - 24.02.2017 09:00:00 (CET)Auch, Frankrijk (7622): temperatuur -20cm & temperatuur -100cm: 18.02.2017 09:00:00 - 24.02.2017 09:00:00 (CET)Auch, Frankrijk (7622): windsnelheid & windstoten: 18.02.2017 09:00:00 - 24.02.2017 09:00:00 (CET)Auch, Frankrijk (7622): windrichting: 18.02.2017 09:00:00 - 24.02.2017 09:00:00 (CET)Auch, Frankrijk (7622): luchtdruk: 18.02.2017 09:00:00 - 24.02.2017 09:00:00 (CET)Auch, Frankrijk (7622): zicht: 18.02.2017 09:00:00 - 24.02.2017 09:00:00 (CET)Auch, Frankrijk (7622): Zonneschijnduur: 18.02.2017 09:00:00 - 24.02.2017 09:00:00 (CET)Auch, Frankrijk (7622): neerslag: 18.02.2017 09:00:00 - 24.02.2017 09:00:00 (CET)
Datum & Tijd tt [°C] td [°C] tt 5cm [°C] tt -20cm [°C] tt -100cm [°C] ff [km/u] ff [kn] fx [km/u] fx [kn] dd ppp [hPa] vv [km] sd [min] rr [mm]
24.02.2017 09:00:00 8,3 6,8 7,4 8,9 9,7 10 6 20 11 NW 1019,3 19 26 0,0
24.02.2017 08:00:00 7,8 6,6 7,3 8,9 9,7 8 4 13 7 WNW 1018,5 20 0 0,0
24.02.2017 07:00:00 7,9 6,7 7,3 8,9 9,7 3 2 8 4 W 1017,9 20 0 0,0
24.02.2017 06:00:00 8,1 6,6 7,6 8,9 9,7 3 1 21 11 NNW 1017,8 20 0 0,0
24.02.2017 05:00:00 8,1 7,2 7,7 9,0 9,8 19 10 33 18 N 1017,5 3,4 0 0,0
24.02.2017 04:00:00 9,3 7,9 8,7 9,0 9,7 8 5 18 10 WZW 1016,7 4,3 0 0,0
24.02.2017 03:00:00 10,1 7,2 9,5 8,9 9,7 10 5 18 10 WZW 1016,8 17 0 0,0
24.02.2017 02:00:00 9,9 7,1 8,6 8,9 9,7 7 4 17 9 WZW 1017,2 15 0 0,0
24.02.2017 01:00:00 9,2 6,6 7,6 8,9 9,7 5 3 11 6 ZZW 1017,6 16 0 0,0
24.02.2017 00:00:00 9,8 6,1 8,3 8,9 9,7 6 3 10 6 ZW 1017,8 20 0 0,0
23.02.2017 23:00:00 10,7 6,6 10,1 8,9 9,7 5 3 22 12 W 1018,2 20 0 0,0
23.02.2017 22:00:00 11,1 7,0 10,7 8,8 9,7 10 5 22 12 W 1017,7 16 0 0,0
23.02.2017 21:00:00 11,6 7,7 11,1 8,8 9,7 9 5 22 12 WZW 1017,0 14 0 0,0
23.02.2017 20:00:00 12,0 8,5 11,3 8,7 9,7 9 5 16 9 WZW 1016,3 13 0 0,0
23.02.2017 19:00:00 12,0 8,8 11,3 8,6 9,7 11 6 16 8 ZZW 1015,8 14 0 0,0
23.02.2017 18:00:00 12,0 8,7 11,8 8,5 9,8 3 2 13 7 ZW 1015,4 14 0 0,0
23.02.2017 17:00:00 12,0 8,5 12,2 8,4 9,7 5 3 13 7 W 1015,3 13 0 0,0
23.02.2017 16:00:00 11,8 8,3 12,3 8,3 9,7 5 3 20 11 WNW 1015,5 14 0 0,0
23.02.2017 15:00:00 11,5 8,2 11,8 8,1 9,7 10 6 22 12 WNW 1015,8 15 0 0,0
23.02.2017 14:00:00 10,3 7,9 10,6 8,0 9,7 11 6 30 16 WNW 1016,4 14 0 0,0
23.02.2017 13:00:00 9,6 8,0 10,5 7,9 9,7 16 9 35 19 W 1017,2 10 36 0,0
23.02.2017 12:00:00 12,6 8,3 13,6 7,9 9,7 9 5 21 11 WNW 1016,3 13 48 0,0
23.02.2017 11:00:00 9,1 6,9 8,9 8,0 9,7 4 2 8 4 NNO 1016,3 15 28 0,0
23.02.2017 10:00:00 5,3 4,4 3,1 8,1 9,7 6 3 8 5 ZZW 1016,5 15 57 0,0
23.02.2017 09:00:00 1,1 0,8 -2,0 8,3 9,7 0 0 3 2 N 1016,3 9 46 0,0
23.02.2017 08:00:00 -0,2 -0,6 -3,1 8,4 9,7 0 0 2 1 N 1016,2 9 0 0,0
23.02.2017 07:00:00 0,1 -0,3 -3,1 8,5 9,7 0 0 2 1 N 1016,0 6 0 0,0
23.02.2017 06:00:00 0,3 0,0 -3,1 8,7 9,7 0 0 2 1 N 1016,4 8 0 0,0
23.02.2017 05:00:00 0,5 0,1 -2,9 8,9 9,7 0 0 3 2 N 1016,6 1,0 0 0,0
23.02.2017 04:00:00 0,4 0,0 -3,0 9,0 9,7 2 1 3 2 ZZW 1017,2 4,5 0 0,0
23.02.2017 03:00:00 1,3 0,9 -2,6 9,1 9,7 0 0 3 2 N 1017,8 4,0 0 0,0
23.02.2017 02:00:00 1,6 1,2 -2,2 9,2 9,7 0 0 5 3 N 1018,3 5 0 0,0
23.02.2017 01:00:00 2,2 1,6 -1,8 9,4 9,7 0 0 4 2 N 1019,0 0,8 0 0,0
23.02.2017 00:00:00 2,9 2,3 -1,1 9,5 9,7 0 0 3 2 N 1019,3 1,5 0 0,0
22.02.2017 23:00:00 3,9 3,2 -0,8 9,5 9,7 0 0 0 0 N 1019,7 12 0 0,0
22.02.2017 22:00:00 4,7 3,8 0,2 9,6 9,7 0 0 3 2 N 1020,1 10 0 0,0
22.02.2017 21:00:00 6,3 5,1 1,0 9,5 9,7 0 0 0 0 N 1020,5 16 0 0,0
22.02.2017 20:00:00 8,2 6,2 2,4 9,5 9,7 0 0 3 1 N 1020,6 20 0 0,0
22.02.2017 19:00:00 11,8 7,9 6,3 9,3 9,7 0 0 8 5 N 1020,3 20 15 0,0
22.02.2017 18:00:00 16,2 8,9 17,3 9,1 9,7 5 3 9 5 NO 1020,1 20 60 0,0
22.02.2017 17:00:00 17,1 8,5 21,7 8,8 9,7 4 2 10 6 NNO 1020,4 20 60 0,0
22.02.2017 16:00:00 17,1 9,0 21,7 8,5 9,7 6 3 13 7 NNO 1020,9 20 60 0,0
22.02.2017 15:00:00 16,4 8,6 21,1 8,3 9,7 5 3 19 10 ONO 1021,4 20 60 0,0
22.02.2017 14:00:00 15,7 8,4 20,5 8,1 9,7 9 5 18 10 NNO 1022,4 20 60 0,0
22.02.2017 13:00:00 14,6 9,4 18,8 8,0 9,7 8 4 16 9 N 1023,3 18 60 0,0
22.02.2017 12:00:00 11,9 8,4 16,2 8,0 9,7 5 3 9 5 N 1024,1 18 60 0,0
22.02.2017 11:00:00 8,4 7,2 8,6 8,0 9,7 2 1 4 2 NO 1024,7 11 60 0,0
22.02.2017 10:00:00 5,1 5,1 4,0 8,0 9,7 3 2 8 4 Z 1025,2 0,3 15 0,0
22.02.2017 09:00:00 3,1 3,0 1,9 8,2 9,7 4 2 6 4 ZZW 1025,4 0,2 0 0,0
22.02.2017 08:00:00 1,6 1,3 -0,8 8,3 9,7 0 0 2 1 N 1025,1 10 0 0,0
22.02.2017 07:00:00 0,8 0,4 -1,8 8,4 9,7 2 1 3 2 Z 1025,1 6 0 0,0
22.02.2017 06:00:00 1,4 0,8 -0,5 8,6 9,7 4 2 8 4 ZW 1025,0 7 0 0,0
22.02.2017 05:00:00 1,7 1,1 -0,6 8,7 9,7 4 2 11 6 ZZW 1025,1 8 0 0,0
22.02.2017 04:00:00 2,3 1,9 -0,8 8,8 9,7 6 4 10 5 ZZW 1025,4 8 0 0,0
22.02.2017 03:00:00 2,2 1,6 -1,2 8,9 9,7 4 2 6 3 ZW 1025,9 7 0 0,0
22.02.2017 02:00:00 2,8 2,2 -0,9 9,0 9,7 3 1 3 2 Z 1026,2 9 0 0,0
22.02.2017 01:00:00 2,8 2,2 -0,8 9,1 9,7 0 0 3 1 N 1026,3 8 0 0,0
22.02.2017 00:00:00 3,6 3,0 -0,3 9,2 9,7 0 0 5 3 N 1026,1 9 0 0,0
21.02.2017 23:00:00 4,3 3,4 0,5 9,2 9,7 3 1 5 3 ZZO 1026,1 15 0 0,0
21.02.2017 22:00:00 4,5 3,5 0,7 9,2 9,7 2 1 4 2 ZZW 1026,0 20 0 0,0
21.02.2017 21:00:00 5,5 4,3 1,4 9,3 9,7 2 1 4 2 ZZW 1026,0 20 0 0,0
21.02.2017 20:00:00 7,0 4,6 2,7 9,2 9,7 3 1 4 2 ZZW 1025,8 20 0 0,0
21.02.2017 19:00:00 10,5 6,6 5,2 9,0 9,7 0 0 6 3 N 1025,5 20 0 0,0
21.02.2017 18:00:00 14,0 7,3 14,1 8,8 9,7 6 3 11 6 N 1025,1 20 57 0,0
21.02.2017 17:00:00 15,0 7,5 18,5 8,6 9,7 5 3 10 6 ONO 1025,0 20 60 0,0
21.02.2017 16:00:00 15,2 7,2 19,8 8,4 9,7 4 2 9 5 NNO 1025,3 20 60 0,0
21.02.2017 15:00:00 15,0 7,3 18,3 8,1 9,6 0 0 9 5 N 1026,1 20 60 0,0
21.02.2017 14:00:00 14,7 6,8 17,4 8,0 9,7 3 2 11 6 Z 1026,7 20 58 0,0
21.02.2017 13:00:00 12,9 6,7 15,8 7,9 9,7 4 2 10 5 NW 1027,9 20 19 0,0
21.02.2017 12:00:00 12,2 6,0 13,6 7,9 9,7 0 0 5 3 N 1028,6 19 27 0,0
21.02.2017 11:00:00 9,0 5,6 8,2 8,0 9,7 3 2 13 7 ZZW 1028,8 16 11 0,0
21.02.2017 10:00:00 5,8 4,3 4,7 8,0 9,7 7 4 14 7 Z 1029,1 13 13 0,0
21.02.2017 09:00:00 3,0 2,3 1,3 8,1 9,7 10 5 11 6 ZZW 1028,9 10 2 0,0
21.02.2017 08:00:00 1,1 0,7 -2,1 8,2 9,7 4 2 9 5 ZZW 1028,8 9 0 0,0
21.02.2017 07:00:00 0,4 -0,2 -1,7 8,4 9,7 0 0 7 4 N 1028,6 6 0 0,0
21.02.2017 06:00:00 1,3 0,6 0,1 8,5 9,7 6 4 13 7 ZZW 1028,6 8 0 0,0
21.02.2017 05:00:00 1,7 1,1 -1,3 8,6 9,7 10 5 12 7 ZZW 1028,7 9 0 0,0
21.02.2017 04:00:00 1,6 0,9 -1,1 8,7 9,7 3 1 5 3 ZZW 1029,1 7 0 0,0
21.02.2017 03:00:00 2,1 1,5 -0,9 8,8 9,7 0 0 8 4 N 1029,4 10 0 0,0
21.02.2017 02:00:00 2,2 1,6 -1,1 8,9 9,7 6 3 8 5 ZZW 1029,3 9 0 0,0
21.02.2017 01:00:00 2,0 1,0 -0,3 9,0 9,7 3 2 7 4 ZW 1029,5 8 0 0,0
21.02.2017 00:00:00 3,4 2,2 1,5 9,1 9,7 4 2 12 6 ZZW 1029,6 10 0 0,0
20.02.2017 23:00:00 4,0 2,8 0,9 9,2 9,6 10 6 12 7 ZZW 1029,7 11 0 0,0
20.02.2017 22:00:00 4,2 3,0 0,9 9,2 9,7 6 3 10 5 ZZW 1029,8 13 0 0,0
20.02.2017 21:00:00 4,4 2,9 1,1 9,2 9,7 8 4 9 5 Z 1029,5 17 0 0,0
20.02.2017 20:00:00 7,4 3,8 3,4 9,1 9,6 2 1 14 8 ZZW 1029,1 20 0 0,0
20.02.2017 19:00:00 10,9 4,6 9,4 9,1 9,7 8 4 18 10 NNW 1028,5 20 0 0,0
20.02.2017 18:00:00 11,4 5,0 11,1 9,0 9,7 4 2 11 6 NW 1028,2 20 0 0,0
20.02.2017 17:00:00 11,8 5,6 12,0 8,9 9,7 7 4 13 7 NNW 1028,2 20 0 0,0
20.02.2017 16:00:00 12,3 4,8 13,3 8,7 9,6 6 3 13 7 NW 1028,2 20 0 0,0
20.02.2017 15:00:00 12,6 4,8 13,5 8,6 9,6 4 2 14 8 WZW 1028,3 20 10 0,0
20.02.2017 14:00:00 11,5 4,9 12,1 8,5 9,6 7 4 16 9 NW 1029,4 20 0 0,0
20.02.2017 13:00:00 11,2 4,6 12,4 8,5 9,7 8 4 13 7 NNW 1029,9 20 0 0,0
20.02.2017 12:00:00 11,1 5,8 11,1 8,4 9,6 5 3 9 5 NNW 1029,9 20 0 0,0
20.02.2017 11:00:00 9,8 7,0 10,0 8,4 9,6 0 0 5 3 N 1030,1 15 0 0,0
20.02.2017 10:00:00 8,4 6,9 7,9 8,4 9,6 0 0 3 2 N 1029,9 11 0 0,0
20.02.2017 09:00:00 7,2 6,5 6,5 8,5 9,6 0 0 7 4 N 1029,8 7 0 0,0
20.02.2017 08:00:00 6,7 6,0 6,0 8,5 9,6 0 0 5 3 N 1029,5 7 0 0,0
20.02.2017 07:00:00 6,4 5,7 5,8 8,6 9,6 3 2 9 5 N 1029,4 4,1 0 0,0
20.02.2017 06:00:00 6,9 6,2 4,7 8,7 9,6 4 2 6 3 Z 1029,1 10 0 0,0
20.02.2017 05:00:00 6,0 5,6 1,4 8,8 9,6 0 0 8 4 N 1029,3 8 0 0,0
20.02.2017 04:00:00 6,6 5,7 1,8 8,9 9,6 3 1 14 8 W 1029,4 6 0 0,0
20.02.2017 03:00:00 7,1 6,2 4,1 9,0 9,6 10 6 21 11 W 1030,0 8 0 0,0
20.02.2017 02:00:00 6,3 5,6 3,9 9,1 9,6 6 3 15 8 ZZW 1029,7 6 0 0,0
20.02.2017 01:00:00 6,7 5,6 4,6 9,2 9,6 5 3 13 7 ZW 1029,7 10 0 0,0
20.02.2017 00:00:00 6,9 5,5 2,0 9,3 9,6 7 4 12 7 WZW 1029,6 16 0 0,0
19.02.2017 23:00:00 4,1 3,5 -0,7 9,4 9,6 8 5 11 6 Z 1029,3 9 0 0,0
19.02.2017 22:00:00 4,2 3,5 -0,2 9,4 9,6 0 0 5 3 N 1029,0 11 0 0,0
19.02.2017 21:00:00 4,8 3,5 0,6 9,4 9,6 2 1 5 3 ZZW 1028,6 10 0 0,0
19.02.2017 20:00:00 7,1 4,9 1,7 9,4 9,6 0 0 4 2 N 1028,1 16 0 0,0
19.02.2017 19:00:00 10,0 6,3 5,7 9,2 9,6 3 1 8 4 NW 1027,7 20 1 0,0
19.02.2017 18:00:00 12,2 7,7 11,5 9,0 9,6 6 3 16 9 WNW 1027,1 19 14 0,0
19.02.2017 17:00:00 14,1 8,1 16,2 8,9 9,6 12 6 18 10 WNW 1027,1 19 60 0,0
19.02.2017 16:00:00 15,0 9,1 15,9 8,7 9,6 11 6 24 13 NW 1027,1 16 48 0,0
19.02.2017 15:00:00 15,1 7,1 15,9 8,4 9,6 13 7 22 12 W 1027,0 20 42 0,0
19.02.2017 14:00:00 14,8 6,6 15,3 8,2 9,6 8 5 16 9 W 1027,4 20 40 0,0
19.02.2017 13:00:00 14,4 7,2 16,9 8,1 9,6 8 4 16 9 W 1027,9 20 54 0,0
19.02.2017 12:00:00 13,5 7,7 14,9 8,0 9,6 10 5 17 9 WZW 1028,6 19 58 0,0
19.02.2017 11:00:00 12,0 7,5 13,1 8,0 9,6 7 4 15 8 WZW 1028,6 17 42 0,0
19.02.2017 10:00:00 9,2 8,0 7,3 8,0 9,6 0 0 5 3 N 1028,5 8 25 0,0
19.02.2017 09:00:00 6,2 5,8 5,4 8,1 9,6 0 0 5 3 N 1028,3 8 0 0,0
19.02.2017 08:00:00 5,2 4,9 5,0 8,2 9,6 3 2 4 2 ZZW 1027,5 6 0 0,0
19.02.2017 07:00:00 4,8 4,5 4,4 8,3 9,6 0 0 0 0 N 1027,0 7 0 0,0
19.02.2017 06:00:00 4,1 4,0 3,4 8,4 9,6 0 0 2 1 N 1026,6 3,4 0 0,0
19.02.2017 05:00:00 3,3 3,2 0,9 8,5 9,6 0 0 7 4 N 1025,8 0,4 0 0,0
19.02.2017 04:00:00 1,6 1,2 -2,6 8,6 9,6 6 3 11 6 Z 1025,5 11 0 0,0
19.02.2017 03:00:00 0,7 0,1 -3,1 8,8 9,6 4 2 6 4 Z 1025,4 10 0 0,0
19.02.2017 02:00:00 0,8 0,2 -2,7 8,9 9,6 4 2 5 3 ZZW 1025,0 12 0 0,0
19.02.2017 01:00:00 1,7 0,8 -2,2 9,0 9,6 0 0 3 1 N 1024,7 13 0 0,0
19.02.2017 00:00:00 2,3 1,3 -1,6 9,1 9,6 0 0 2 1 N 1024,3 18 0 0,0
18.02.2017 23:00:00 3,1 1,8 -1,1 9,1 9,6 2 1 4 2 Z 1023,7 20 0 0,0
18.02.2017 22:00:00 4,4 2,6 -0,3 9,1 9,6 0 0 4 2 N 1023,3 20 0 0,0
18.02.2017 21:00:00 5,9 3,7 0,4 9,1 9,6 2 1 4 2 Z 1022,7 20 0 0,0
18.02.2017 20:00:00 7,8 3,8 2,3 9,0 9,6 2 1 4 2 Z 1022,0 20 0 0,0
18.02.2017 19:00:00 13,0 4,4 8,3 8,9 9,6 4 2 10 5 NO 1021,2 20 9 0,0
18.02.2017 18:00:00 15,8 4,8 16,4 8,7 9,6 6 3 10 6 NO 1020,5 20 60 0,0
18.02.2017 17:00:00 16,6 3,3 19,5 8,5 9,5 6 4 13 7 NNO 1020,2 20 60 0,0
18.02.2017 16:00:00 17,1 3,7 21,6 8,2 9,5 8 4 17 9 NNO 1020,1 20 60 0,0
18.02.2017 15:00:00 17,0 4,0 21,8 8,1 9,5 9 5 16 9 N 1020,2 20 60 0,0
18.02.2017 14:00:00 16,4 5,6 20,1 7,9 9,5 5 3 14 7 NO 1020,9 20 60 0,0
18.02.2017 13:00:00 15,7 6,1 20,2 7,9 9,5 6 3 13 7 NO 1021,7 20 60 0,0
18.02.2017 12:00:00 12,8 7,0 15,4 7,9 9,5 3 2 7 4 N 1022,7 19 60 0,0
18.02.2017 11:00:00 8,5 5,4 12,4 7,9 9,5 4 2 7 4 N 1023,1 17 60 0,0
18.02.2017 10:00:00 5,3 3,8 3,7 8,1 9,5 0 0 5 3 N 1023,4 18 60 0,0
18.02.2017 09:00:00 0,6 0,2 -3,5 8,2 9,5 2 1 3 1 Z 1023,6 10 18 0,0

tt = temperatuur
td = dauwpunt
tt 5cm = temperatuur 5cm
tt -20cm = temperatuur -20cm
tt -100cm = temperatuur -100cm
ff = windsnelheid
fx = windstoten
dd = windrichting
ppp = luchtdruk
vv = zicht
sd = Zonneschijnduur
rr = neerslag

Weerstations in de omgeving